Time,TemperatureF,DewpointF,PressureIn,WindDirection,WindDirectionDegrees,WindSpeedMPH,WindSpeedGustMPH,Humidity,HourlyPrecipIn,Conditions,Clouds,dailyrainin,SolarRadiationWatts/m^2,SoftwareType,DateUTC
2013-08-25 00:04:00,68.1,64.0,30.16,SSE,162,0.0,1.0,87,0.00,,,0.00,0,weatherlink.com 1.10,2013-08-25 05:04:00,
2013-08-25 00:19:00,67.9,64.0,30.16,SSE,162,0.0,1.0,87,0.00,,,0.00,0,weatherlink.com 1.10,2013-08-25 05:19:00,
2013-08-25 00:34:00,67.6,64.0,30.16,SSE,162,0.0,1.0,88,0.00,,,0.00,0,weatherlink.com 1.10,2013-08-25 05:34:00,
2013-08-25 00:49:00,67.2,64.0,30.17,SSE,162,0.0,0.0,89,0.00,,,0.00,0,weatherlink.com 1.10,2013-08-25 05:49:00,
2013-08-25 01:04:00,67.0,64.0,30.16,SSE,162,0.0,0.0,90,0.00,,,0.00,0,weatherlink.com 1.10,2013-08-25 06:04:00,
2013-08-25 01:19:00,67.2,65.0,30.16,SSE,162,0.0,0.0,91,0.00,,,0.00,0,weatherlink.com 1.10,2013-08-25 06:19:00,
2013-08-25 01:35:00,67.6,65.0,30.16,SSE,162,0.0,1.0,90,0.00,,,0.00,0,weatherlink.com 1.10,2013-08-25 06:35:00,
2013-08-25 01:50:00,67.7,64.0,30.16,SSE,162,0.0,1.0,89,0.00,,,0.00,0,weatherlink.com 1.10,2013-08-25 06:50:00,
2013-08-25 02:05:00,67.8,64.0,30.16,SSE,162,0.0,1.0,88,0.00,,,0.00,0,weatherlink.com 1.10,2013-08-25 07:05:00,
2013-08-25 02:20:00,67.8,64.0,30.16,SSE,162,0.0,1.0,87,0.00,,,0.00,0,weatherlink.com 1.10,2013-08-25 07:20:00,
2013-08-25 02:35:00,67.6,64.0,30.16,SSE,162,0.0,1.0,87,0.00,,,0.00,0,weatherlink.com 1.10,2013-08-25 07:35:00,
2013-08-25 02:50:00,67.6,63.0,30.16,SSE,162,0.0,1.0,86,0.00,,,0.00,0,weatherlink.com 1.10,2013-08-25 07:50:00,
2013-08-25 03:05:00,67.4,63.0,30.16,SSE,162,0.0,1.0,85,0.00,,,0.00,0,weatherlink.com 1.10,2013-08-25 08:05:00,
2013-08-25 03:20:00,67.4,62.0,30.16,SSE,162,0.0,1.0,84,0.00,,,0.00,0,weatherlink.com 1.10,2013-08-25 08:20:00,
2013-08-25 03:35:00,67.4,62.0,30.16,SSE,162,0.0,1.0,83,0.00,,,0.00,0,weatherlink.com 1.10,2013-08-25 08:35:00,
2013-08-25 03:50:00,67.2,62.0,30.16,SSE,162,0.0,1.0,83,0.00,,,0.00,0,weatherlink.com 1.10,2013-08-25 08:50:00,
2013-08-25 04:05:00,66.8,62.0,30.16,SSE,162,0.0,1.0,83,0.00,,,0.00,0,weatherlink.com 1.10,2013-08-25 09:05:00,
2013-08-25 04:20:00,66.6,61.0,30.16,SSE,162,0.0,1.0,83,0.00,,,0.00,0,weatherlink.com 1.10,2013-08-25 09:20:00,
2013-08-25 04:35:00,66.5,61.0,30.17,SSE,162,0.0,1.0,82,0.00,,,0.00,0,weatherlink.com 1.10,2013-08-25 09:35:00,
2013-08-25 04:50:00,66.2,61.0,30.17,SSE,162,0.0,1.0,83,0.00,,,0.00,0,weatherlink.com 1.10,2013-08-25 09:50:00,
2013-08-25 05:05:00,66.0,61.0,30.17,SSE,162,0.0,1.0,84,0.00,,,0.00,0,weatherlink.com 1.10,2013-08-25 10:05:00,
2013-08-25 05:20:00,66.0,61.0,30.17,SSE,162,0.0,0.0,84,0.00,,,0.00,0,weatherlink.com 1.10,2013-08-25 10:20:00,
2013-08-25 05:35:00,66.2,62.0,30.17,SSE,163,0.0,0.0,85,0.00,,,0.00,0,weatherlink.com 1.10,2013-08-25 10:35:00,
2013-08-25 05:50:00,66.5,62.0,30.17,SSE,163,0.0,0.0,84,0.00,,,0.00,0,weatherlink.com 1.10,2013-08-25 10:50:00,
2013-08-25 06:05:00,66.7,62.0,30.17,SSE,163,0.0,1.0,84,0.00,,,0.00,0,weatherlink.com 1.10,2013-08-25 11:05:00,
2013-08-25 06:20:00,66.9,62.0,30.18,SSE,163,0.0,1.0,85,0.00,,,0.00,0,weatherlink.com 1.10,2013-08-25 11:20:00,
2013-08-25 06:35:00,67.0,62.0,30.18,SSE,163,0.0,1.0,85,0.00,,,0.00,12,weatherlink.com 1.10,2013-08-25 11:35:00,
2013-08-25 06:50:00,67.2,63.0,30.18,SSE,162,0.0,1.0,85,0.00,,,0.00,28,weatherlink.com 1.10,2013-08-25 11:50:00,
2013-08-25 07:05:00,67.5,63.0,30.18,SSE,165,0.0,1.0,85,0.00,,,0.00,40,weatherlink.com 1.10,2013-08-25 12:05:00,
2013-08-25 07:20:00,67.9,64.0,30.18,SSE,165,0.0,1.0,86,0.00,,,0.00,77,weatherlink.com 1.10,2013-08-25 12:20:00,
2013-08-25 07:35:00,69.0,64.0,30.18,SSE,167,1.0,3.0,85,0.00,,,0.00,114,weatherlink.com 1.10,2013-08-25 12:35:00,
2013-08-25 07:50:00,70.0,65.0,30.18,SSE,155,2.0,3.0,84,0.00,,,0.00,153,weatherlink.com 1.10,2013-08-25 12:50:00,
2013-08-25 08:05:00,70.9,66.0,30.18,South,180,1.0,2.0,84,0.00,,,0.00,197,weatherlink.com 1.10,2013-08-25 13:05:00,
2013-08-25 08:20:00,72.1,67.0,30.18,SSW,194,1.0,2.0,83,0.00,,,0.00,239,weatherlink.com 1.10,2013-08-25 13:20:00,
2013-08-25 08:35:00,73.2,67.0,30.17,SSE,148,2.0,4.0,82,0.00,,,0.00,309,weatherlink.com 1.10,2013-08-25 13:35:00,
2013-08-25 08:50:00,74.5,68.0,30.17,SSW,196,1.0,4.0,80,0.00,,,0.00,343,weatherlink.com 1.10,2013-08-25 13:50:00,
2013-08-25 09:05:00,75.0,69.0,30.17,SSW,199,1.0,4.0,81,0.00,,,0.00,369,weatherlink.com 1.10,2013-08-25 14:05:00,
2013-08-25 09:21:00,76.0,69.0,30.17,WSW,242,3.0,4.0,79,0.00,,,0.00,408,weatherlink.com 1.10,2013-08-25 14:21:00,
2013-08-25 09:36:00,77.1,70.0,30.17,SSW,194,1.0,6.0,78,0.00,,,0.00,445,weatherlink.com 1.10,2013-08-25 14:36:00,
2013-08-25 09:51:00,78.1,70.0,30.16,SW,230,0.0,7.0,77,0.00,,,0.00,485,weatherlink.com 1.10,2013-08-25 14:51:00,
2013-08-25 10:06:00,79.1,71.0,30.16,SW,216,0.0,7.0,75,0.00,,,0.00,533,weatherlink.com 1.10,2013-08-25 15:06:00,
2013-08-25 10:21:00,80.0,71.0,30.16,SW,233,7.0,7.0,73,0.00,,,0.00,554,weatherlink.com 1.10,2013-08-25 15:21:00,
2013-08-25 10:36:00,80.5,70.0,30.15,SSW,193,4.0,6.0,71,0.00,,,0.00,585,weatherlink.com 1.10,2013-08-25 15:36:00,
2013-08-25 10:51:00,80.9,71.0,30.15,SSW,211,2.0,6.0,71,0.00,,,0.00,617,weatherlink.com 1.10,2013-08-25 15:51:00,
2013-08-25 11:06:00,82.0,72.0,30.14,SW,221,0.0,5.0,72,0.00,,,0.00,649,weatherlink.com 1.10,2013-08-25 16:06:00,
2013-08-25 11:21:00,82.7,72.0,30.14,SW,225,1.0,10.0,69,0.00,,,0.00,663,weatherlink.com 1.10,2013-08-25 16:21:00,
2013-08-25 11:36:00,83.5,72.0,30.14,SSW,198,4.0,8.0,68,0.00,,,0.00,684,weatherlink.com 1.10,2013-08-25 16:36:00,
2013-08-25 11:51:00,83.9,71.0,30.13,WSW,243,3.0,7.0,66,0.00,,,0.00,698,weatherlink.com 1.10,2013-08-25 16:51:00,
2013-08-25 12:06:00,84.3,72.0,30.13,SSW,213,1.0,7.0,66,0.00,,,0.00,719,weatherlink.com 1.10,2013-08-25 17:06:00,
2013-08-25 12:21:00,85.0,71.0,30.12,SSW,213,3.0,7.0,64,0.00,,,0.00,737,weatherlink.com 1.10,2013-08-25 17:21:00,
2013-08-25 12:37:00,85.3,72.0,30.12,SW,229,5.0,6.0,64,0.00,,,0.00,747,weatherlink.com 1.10,2013-08-25 17:37:00,
2013-08-25 12:51:00,85.8,72.0,30.11,SSW,209,4.0,8.0,64,0.00,,,0.00,545,weatherlink.com 1.10,2013-08-25 17:51:00,
2013-08-25 13:07:00,86.2,73.0,30.11,SW,224,2.0,9.0,65,0.00,,,0.00,258,weatherlink.com 1.10,2013-08-25 18:07:00,
2013-08-25 13:22:00,86.6,74.0,30.11,WSW,244,3.0,11.0,66,0.00,,,0.00,752,weatherlink.com 1.10,2013-08-25 18:22:00,
2013-08-25 13:37:00,86.9,72.0,30.10,SW,216,2.0,10.0,62,0.00,,,0.00,740,weatherlink.com 1.10,2013-08-25 18:37:00,
2013-08-25 13:52:00,87.0,74.0,30.10,SSW,212,5.0,11.0,65,0.00,,,0.00,740,weatherlink.com 1.10,2013-08-25 18:52:00,
2013-08-25 14:07:00,87.6,73.0,30.10,SW,215,3.0,9.0,63,0.00,,,0.00,724,weatherlink.com 1.10,2013-08-25 19:07:00,
2013-08-25 14:22:00,87.9,74.0,30.09,SSW,202,4.0,8.0,63,0.00,,,0.00,710,weatherlink.com 1.10,2013-08-25 19:22:00,
2013-08-25 14:37:00,88.0,73.0,30.09,SSW,207,5.0,6.0,61,0.00,,,0.00,696,weatherlink.com 1.10,2013-08-25 19:37:00,
2013-08-25 14:52:00,87.9,73.0,30.08,SSW,207,3.0,4.0,62,0.00,,,0.00,680,weatherlink.com 1.10,2013-08-25 19:52:00,
2013-08-25 15:07:00,88.1,73.0,30.07,SSW,196,4.0,8.0,61,0.00,,,0.00,659,weatherlink.com 1.10,2013-08-25 20:07:00,
2013-08-25 15:22:00,88.1,73.0,30.07,SSW,212,5.0,7.0,62,0.00,,,0.00,633,weatherlink.com 1.10,2013-08-25 20:22:00,
2013-08-25 15:37:00,88.5,73.0,30.07,SW,224,3.0,8.0,60,0.00,,,0.00,619,weatherlink.com 1.10,2013-08-25 20:37:00,
2013-08-25 15:52:00,88.3,74.0,30.06,South,181,2.0,10.0,62,0.00,,,0.00,575,weatherlink.com 1.10,2013-08-25 20:52:00,
2013-08-25 16:07:00,88.5,74.0,30.06,South,181,0.0,6.0,62,0.00,,,0.00,548,weatherlink.com 1.10,2013-08-25 21:07:00,
2013-08-25 16:22:00,88.2,74.0,30.06,South,184,1.0,6.0,62,0.00,,,0.00,527,weatherlink.com 1.10,2013-08-25 21:22:00,
2013-08-25 16:37:00,88.0,73.0,30.05,SSW,200,3.0,6.0,62,0.00,,,0.00,476,weatherlink.com 1.10,2013-08-25 21:37:00,
2013-08-25 16:52:00,87.6,73.0,30.06,SSW,207,1.0,6.0,62,0.00,,,0.00,434,weatherlink.com 1.10,2013-08-25 21:52:00,
2013-08-25 17:07:00,87.4,73.0,30.06,SSW,211,3.0,4.0,62,0.00,,,0.00,392,weatherlink.com 1.10,2013-08-25 22:07:00,
2013-08-25 17:22:00,86.8,73.0,30.06,SSW,206,2.0,5.0,63,0.00,,,0.00,341,weatherlink.com 1.10,2013-08-25 22:22:00,
2013-08-25 17:37:00,86.6,72.0,30.07,South,191,2.0,5.0,62,0.00,,,0.00,306,weatherlink.com 1.10,2013-08-25 22:37:00,
2013-08-25 17:52:00,86.5,72.0,30.06,SSW,207,2.0,5.0,62,0.00,,,0.00,258,weatherlink.com 1.10,2013-08-25 22:52:00,
2013-08-25 18:07:00,85.9,71.0,30.06,SSW,199,4.0,5.0,62,0.00,,,0.00,216,weatherlink.com 1.10,2013-08-25 23:07:00,
2013-08-25 18:22:00,85.6,71.0,30.06,SSW,202,1.0,5.0,62,0.00,,,0.00,167,weatherlink.com 1.10,2013-08-25 23:22:00,
2013-08-25 18:37:00,85.1,71.0,30.06,SSW,206,0.0,4.0,62,0.00,,,0.00,121,weatherlink.com 1.10,2013-08-25 23:37:00,
2013-08-25 18:52:00,84.4,70.0,30.06,SSW,205,0.0,4.0,63,0.00,,,0.00,77,weatherlink.com 1.10,2013-08-25 23:52:00,
2013-08-25 19:07:00,83.6,70.0,30.06,SSW,204,1.0,3.0,64,0.00,,,0.00,42,weatherlink.com 1.10,2013-08-26 00:07:00,
2013-08-25 19:22:00,82.5,70.0,30.07,SSW,208,1.0,3.0,65,0.00,,,0.00,18,weatherlink.com 1.10,2013-08-26 00:22:00,
2013-08-25 19:37:00,81.6,70.0,30.07,SSW,208,0.0,2.0,67,0.00,,,0.00,5,weatherlink.com 1.10,2013-08-26 00:37:00,
2013-08-25 19:52:00,80.2,70.0,30.07,SSW,208,0.0,1.0,70,0.00,,,0.00,0,weatherlink.com 1.10,2013-08-26 00:52:00,
2013-08-25 20:07:00,79.1,69.0,30.07,SSW,208,0.0,1.0,72,0.00,,,0.00,0,weatherlink.com 1.10,2013-08-26 01:07:00,
2013-08-25 20:22:00,78.6,68.0,30.07,SSW,196,0.0,3.0,71,0.00,,,0.00,0,weatherlink.com 1.10,2013-08-26 01:22:00,
2013-08-25 20:37:00,78.8,68.0,30.07,SSW,202,0.0,3.0,70,0.00,,,0.00,0,weatherlink.com 1.10,2013-08-26 01:37:00,
2013-08-25 20:52:00,78.5,68.0,30.08,SSW,205,0.0,2.0,70,0.00,,,0.00,0,weatherlink.com 1.10,2013-08-26 01:52:00,
2013-08-25 21:07:00,77.7,68.0,30.08,SSW,198,0.0,1.0,72,0.00,,,0.00,0,weatherlink.com 1.10,2013-08-26 02:07:00,
2013-08-25 21:22:00,77.0,68.0,30.08,SSW,198,0.0,1.0,73,0.00,,,0.00,0,weatherlink.com 1.10,2013-08-26 02:22:00,
2013-08-25 21:37:00,76.3,68.0,30.09,SSW,198,0.0,1.0,75,0.00,,,0.00,0,weatherlink.com 1.10,2013-08-26 02:37:00,
2013-08-25 21:52:00,76.1,68.0,30.09,SSW,198,0.0,1.0,76,0.00,,,0.00,0,weatherlink.com 1.10,2013-08-26 02:52:00,
2013-08-25 22:07:00,76.0,68.0,30.09,SSW,193,0.0,1.0,76,0.00,,,0.00,0,weatherlink.com 1.10,2013-08-26 03:07:00,
2013-08-25 22:22:00,75.8,68.0,30.09,SSW,196,0.0,1.0,77,0.00,,,0.00,0,weatherlink.com 1.10,2013-08-26 03:22:00,
2013-08-25 22:37:00,75.3,68.0,30.09,SSW,196,0.0,1.0,78,0.00,,,0.00,0,weatherlink.com 1.10,2013-08-26 03:37:00,
2013-08-25 22:52:00,75.1,68.0,30.09,South,185,0.0,1.0,79,0.00,,,0.00,0,weatherlink.com 1.10,2013-08-26 03:52:00,
2013-08-25 23:07:00,74.8,68.0,30.09,South,191,0.0,2.0,80,0.00,,,0.00,0,weatherlink.com 1.10,2013-08-26 04:07:00,
2013-08-25 23:22:00,74.4,68.0,30.08,South,191,0.0,1.0,80,0.00,,,0.00,0,weatherlink.com 1.10,2013-08-26 04:22:00,
2013-08-25 23:37:00,74.4,68.0,30.07,South,191,1.0,2.0,80,0.00,,,0.00,0,weatherlink.com 1.10,2013-08-26 04:37:00,
2013-08-25 23:52:00,74.4,68.0,30.07,South,185,1.0,2.0,80,0.00,,,0.00,0,weatherlink.com 1.10,2013-08-26 04:52:00,